Simultaneous Nadir Overpasses (SNOs) Predictions

Prediction of SNOs between GOES-14 and NPP Satellite Orbit:

Table of predicted SNOs for the next 14.0 days since TLE Epoch: 7/25/2020
Index Date Time (GOES-14) GOES-14 Lat,Lon NPP Lat,Lon Distance(km) Time Diff (sec)
1 07/25/2020 08:20:14 -0.32,-104.33 -0.48,-103.54 89.08 80
2 07/26/2020 20:39:32 0.35,-104.53 -0.65,-108.86 494.02 80
3 07/27/2020 20:23:28 0.33,-104.54 0.40,-104.34 23.59 80
4 07/30/2020 08:23:52 -0.35,-104.36 -0.20,-105.07 80.96 80
5 07/31/2020 08:07:48 -0.34,-104.36 -1.20,-100.54 435.86 80
6 08/01/2020 20:27:06 0.38,-104.56 0.07,-105.86 147.88 80
7 08/02/2020 20:11:03 0.36,-104.57 1.12,-101.34 369.64 80
8 08/04/2020 08:32:50 -0.40,-104.40 0.12,-106.59 250.74 80
9 08/05/2020 08:14:06 -0.38,-104.40 -0.93,-102.07 266.45 80
10 08/06/2020 20:33:25 0.41,-104.60 -0.19,-107.39 317.74 80
11 08/07/2020 20:17:20 0.40,-104.61 0.80,-102.86 200.31 80
